Regional Weather Roundup
Issued by NWS

Home | Current Version | Previous Version | Text Only | Print | Product List | Glossary Off
Versions: 1 2 3 4 5 6 7 8 9 10 11 12 13 14 15 16 17 18 19 20 21 22 23 24 25 26 27 28 29 30 31 32 33 34 35 36 37 38 39 40 41 42 43 44 45 46 47 48 49 50

000
ASUS45 KBOI 240410
RWRID

IDAHO REGIONAL WEATHER ROUNDUP
NATIONAL WEATHER SERVICE BOISE ID
1000 PM MDT TUE MAY 23 2017

NOTE: "FAIR" INDICATES FEW OR NO CLOUDS BELOW 12000 FEET
WITH NO SIGNIFICANT WEATHER AND/OR OBSTRUCTIONS TO VISIBILITY

IDZ012-014-240500-
SOUTHWEST IDAHO


CITY           SKY/WX    TMP DP  RH WIND       PRES   REMARKS
BOISE          CLEAR     73  42  32 SE10      29.84F
CALDWELL       CLEAR     72  45  37 E10       29.81F
MOUNTAIN HOME  CLEAR     70  45  40 E6        29.87F
$$

IDZ016-017-240500-
SOUTHCENTRAL IDAHO


CITY           SKY/WX    TMP DP  RH WIND       PRES   REMARKS
BURLEY         CLEAR     62  44  51 SW7       29.96S
JEROME         CLEAR     70  40  33 SW5       29.96F
TWIN FALLS     CLEAR     60  42  51 SW7       29.97F
$$

IDZ019>023-240500-
SOUTHEAST IDAHO


CITY           SKY/WX    TMP DP  RH WIND       PRES   REMARKS
IDAHO FALLS    CLEAR     66  34  30 S13       29.98F
POCATELLO      CLEAR     63  41  44 S10       29.98F
REXBURG        CLEAR     64  37  36 S12       29.97F
$$

IDZ006-010-011-018-031-032-240500-
CENTRAL IDAHO MOUNTAINS


CITY           SKY/WX    TMP DP  RH WIND       PRES   REMARKS
MCCALL         CLEAR     63  44  50 CALM      29.95F
HAILEY         CLEAR     66  41  39 NW7       30.02F
STANLEY          N/A     51  38  60 SE3       30.10S
SALMON         CLEAR     70  39  32 SW14      29.83F
CHALLIS        CLEAR     64  36  35 S7        29.97S
$$

IDZ002-004-006-007-026-240500-
NORTHERN IDAHO


CITY           SKY/WX    TMP DP  RH WIND       PRES   REMARKS
LEWISTON       CLEAR     77  52  41 S9        29.69F
LOWELL           N/A     62  54  74 CALM      29.72F
COEUR D`ALENE  PTCLDY    72  47  40 S12       29.67F
MULLAN PASS    CLEAR     56  36  47 SW10G23   29.88F
$$



USA.gov is the U.S. government's official web portal to all federal, state and local government web resources and services.